Regional Weather Roundup
Issued by NWS Upton, NY

Current Version | Previous Version | Graphics & Text | Print | Product List | Glossary Off
Versions: 1 2 3 4 5 6 7 8 9 10 11 12 13 14 15 16 17 18 19 20 21 22 23 24 25 26 27 28 29 30 31 32 33 34 35 36 37 38 39 40 41 42 43 44 45 46 47 48 49 50
613 ASUS41 KOKX 241509 RWROKX REGIONAL WEATHER ROUNDUP NATIONAL WEATHER SERVICE NEW YORK NY 1100 AM EDT SAT JUN 24 2017 NOTE: "FAIR" INDICATES FEW OR NO CLOUDS BELOW 12,000 FEET WITH NO SIGNIFICANT WEATHER AND/OR OBSTRUCTIONS TO VISIBILITY. NYZ071-072-176-178-NJZ106-104-241600- NEW YORK CITY METRO AREA CITY SKY/WX TMP DP RH WIND PRES REMARKS Central Park MOSUNNY 78 69 73 W7 29.68R Bronx Bot Gard N/A 81 68 65 NW6 29.66S LaGuardia APRT PTSUNNY 80 71 74 NW10 29.64R Kennedy INTL PTSUNNY 81 73 76 W9 29.66R Breezy Point N/A 72 N/A N/A W9 N/A Newark/Liberty MOSUNNY 83 69 62 W14G22 29.65R Teterboro SUNNY 82 67 60 NW9 29.64R $$ NYZ177-179-078>081-241600- LONG ISLAND NEW YORK CITY SKY/WX TMP DP RH WIND PRES REMARKS Jones Beach N/A 70 N/A N/A W12 N/A Matinecock PT NOT AVBL Farmingdale NOT AVBL MacArthur/ISP CLOUDY 79 73 82 W9 29.63R Shirley CLOUDY 78 74 87 NW8 29.63R Mt Sinai Harb N/A N/A N/A N/A W3 N/A Westhampton CLOUDY 75 70 84 W10 29.63R East Hampton PTSUNNY 73 71 94 NW7 29.60S Montauk N/A 71 71 100 W6 29.60F $$ NYZ052-065-067-241600- HUDSON VALLEY CITY SKY/WX TMP DP RH WIND PRES REMARKS White Plains MOSUNNY 81 70 69 W12 29.64R Larchmont Harb N/A 75 N/A N/A SW9 N/A Croton O-T Hud N/A 77 N/A N/A W7 N/A Newburgh MOSUNNY 79 63 57 NW18G28 29.67R Montgomery SUNNY 80 58 46 NW14G26 29.66R Poughkeepsie SUNNY 79 58 48 NW14G24 29.64R Albany MOSUNNY 76 63 64 W18G24 29.65R $$ NJZ001-105-106-008-010-013-015-019>022-104-241600- NEW JERSEY CITY SKY/WX TMP DP RH WIND PRES REMARKS Newark/Liberty MOSUNNY 83 69 62 W14G22 29.65R Teterboro SUNNY 82 67 60 NW9 29.64R Caldwell SUNNY 83 61 47 NW8G18 29.68R Somerville MOSUNNY 82 63 52 NW10G23 29.68R Linden FAIR 82 68 63 NW15G23 29.67R Perth Amboy N/A 77 N/A N/A W15 N/A Sussex SUNNY 78 62 57 VRB6G17 29.70R Andover N/A 78 61 55 N8 29.72R Trenton MOSUNNY 80 69 69 NW17G24 29.71R Millville PTSUNNY 81 72 74 NW15G28 29.76R Atlantic City MOSUNNY 82 71 69 W16G29 29.74R Wrightstown PTSUNNY 80 71 74 NW15 29.69R Toms River CLOUDY 80 71 74 W13G20 29.72R Belmar PTSUNNY 79 71 76 W12G21 29.70R $$ PAZ047>061-062-071-241600- EASTERN PENNSYLVANIA CITY SKY/WX TMP DP RH WIND PRES REMARKS Philadelphia PTSUNNY 82 66 58 NW18G28 29.75R Allentown SUNNY 78 57 48 NW13G18 29.75R Scranton SUNNY 75 57 53 NW12 29.77R $$ CTZ002-004>006-009-010-012-RIZ004-006-007-MAZ004-011-015-241600- SOUTHERN NEW ENGLAND IN CT CITY SKY/WX TMP DP RH WIND PRES REMARKS Bradley INTL PTSUNNY 77 67 71 NW9 29.59R Hartford PTSUNNY 80 72 76 W10 29.58S Danbury SUNNY 80 66 62 W13G22 29.65R Wtrbury/Oxford PTSUNNY 72 63 73 N15 29.66R Bridgeport MOSUNNY 76 69 79 SW12 29.61R Meriden LGT RAIN 75 69 81 W12G18 29.61R New Haven PTSUNNY 73 72 94 SW46 29.61R Chester CLOUDY 73 72 94 W6 29.62 Groton CLOUDY 72 71 97 W7 29.59S FOG Wilimantic CLOUDY 77 73 87 SW7 29.60R IN RI CITY SKY/WX TMP DP RH WIND PRES REMARKS Providence LGT RAIN 73 73 100 S6 29.58F Block Island LGT RAIN 66 65 96 SW17 29.60S FOG Westerly CLOUDY 72 71 97 SW5 29.60R IN MA CITY SKY/WX TMP DP RH WIND PRES REMARKS Boston LGT RAIN 73 72 96 S6 29.55F Worcester LGT RAIN 70 66 87 NW13G24 29.62R FOG Westfield CLOUDY 77 67 71 NW8 29.58R Provincetown HVY RAIN 67 66 97 SW9 29.58F FOG Nantucket CLOUDY 66 65 96 S17 29.62F FOG $$ ANZ330-335-338-340-345-350-353-355-241600- COASTAL MARINE OBSERVATIONS STATION/POSITION TIME SKY/WX TEMP WIND PRES VSBY WAVE AIR SEA DIR/SP/G HT/PER (UTC) (F) (DEG/KT/KT) (MB) (MI) (FT/S) NY HARB ENTRANCE 1350 68 66 270/ 10/ 12 1003.4 5/ 8 20 S FIRE ISLAND 1450 68 67 270/ 12/ 14 1003.5 8/ 8 GREAT SOUTH BAY 1430 74 76 300/ 6/ 10 N/A 23 SSW MONTAUK P 1350 68 63 1002.1 7/ 7 15 E BARNEGAT LI 1430 62 N/A 7/ 8 HUDSON CANYON 1350 71 66 220/ 23/ 27 1002.9 9/ 8 KINGS POINT 1442 74 64 300/ 3/ 4 1003.6 EXECUTION ROCKS 1445 74 230/ 8/ 10 N/A CENTRAL LI SOUND NOT AVBL EASTERN LI SOUND NOT AVBL ROBBINS REEF 1436 290/ 16/ 21 1004.3 $$ >>>>>>>>>>>>>>>>>>>>>>>>>>>> KEY <<<<<<<<<<<<<<<<<<<<<<<<<<< > < > SKY/WX - Sky Condition/Present Weather < > TMP - Temperature in Fahrenheit < > DP - Dew Point in Fahrenheit < > RH - Relative Humidity in Percent < > WIND - Direction (from) and Speed in MPH < > PRES - Mean Sea Level Pressure (inches of Hg) < > WCI - Wind Chill Index < > VSB - VISIBILITY IN MILES < > HX - HEAT INDEX < > TC - TEMPERATURE IN CELSIUS < > VRB - VARIABLE WIND DIRECTION < > < >>>>>>>>>>>>>>>>>>>>>>>>>>>> KEY <<<<<<<<<<<<<<<<<<<<<<<<<<<

USA.gov is the U.S. government's official web portal to all federal, state and local government web resources and services.